Regional Weather Roundup
Issued by NWS

Home | Current Version | Previous Version | Text Only | Print | Product List | Glossary On
Versions: 1 2 3 4 5 6 7 8 9 10 11 12 13 14 15 16 17 18 19 20 21 22 23 24 25 26 27 28 29 30 31 32 33 34 35 36 37 38 39 40 41 42 43 44 45 46 47 48 49 50
000
ASUS43 KLMK 271602
RWRKY
KENTUCKY REGIONAL WEATHER ROUNDUP
NATIONAL WEATHER SERVICE LOUISVILLE KY
1200 PM EDT FRI MAY 27 2016

NOTE "FAIR" INDICATES FEW OR NO CLOUDS BELOW 12,000 FEET
WITH NO SIGNIFICANT WEATHER AND/OR OBSTRUCTIONS TO VISIBILITY.

KYZ001>023-026-027-061>063-070>075-271700-
WESTERN AND SOUTH CENTRAL KENTUCKY

CITY           SKY/WX    TMP DP  RH WIND       PRES   REMARKS
PADUCAH        CLOUDY    77  68  73 S10G18    29.95S
HENDERSON      CLOUDY    77  66  69 S13       29.97R
OWENSBORO      MOSUNNY   80  69  69 S12G18    30.00F
HOPKINSVILLE   NOT AVBL
BOWLING GREEN  SUNNY     81  67  62 S10       30.05S
GLASGOW        NOT AVBL
$$

KYZ024-025-028>034-038-045-046-053-271700-
NORTH CENTRAL KENTUCKY

CITY           SKY/WX    TMP DP  RH WIND       PRES   REMARKS
LOUISVILLE/SDF MOSUNNY   81  66  60 S7        30.04S
LOUISVILLE/LOU MOSUNNY   81  67  62 S8        30.04S
FORT KNOX      NOT AVBL
$$

KYZ035>037-039>044-047>052-055>060-089>105-271700-
NORTHEAST KENTUCKY

CITY           SKY/WX    TMP DP  RH WIND       PRES   REMARKS
LEXINGTON      SUNNY     81  67  62 SW10      30.08R
COVINGTON      PTSUNNY   81  66  60 S6        30.05S
FRANKFORT      PTSUNNY   82  66  58 SW9       30.05S
$$

KYZ054-064>069-076>088-106>120-271700-
SOUTHEAST KENTUCKY

CITY           SKY/WX    TMP DP  RH WIND       PRES   REMARKS
JACKSON        SUNNY     82  66  58 VRB3      30.11S
LONDON         SUNNY     82  62  50 SW12      30.11R
SOMERSET       NOT AVBL
MIDDLESBORO    SUNNY     80  66  62 S8        30.12F
MONTICELLO     MOSUNNY   82  67  60 VRB7      30.11R
$$





USA.gov is the U.S. government's official web portal to all federal, state and local government web resources and services.